EW1976 Ferndale WA US current weather conditions

sailwx.info

Wind from 275

Air temperature 5.0° C
Dewpoint 3.3° C

Last reported at 2019-Dec-06 15:01 UTC.
Time now 2019-Dec-06 15:39 UTC

Location: N 48°54' W 122°35'.
View on Google Maps.

See reports from other nearby stations

  
Tides and Currents Weather Stations Pressure Air Temp Water Temp Dewpoint Dewpoint Depression Visibility Wind Speed Wind Dir Waves Ship Positions
date/time (UTC)wind fromknots sea level pressurealtimeterstation pressurevisibilityair tempwater tempwave heightnotes
2019-Dec-06 15:01 275 5.0
2019-Dec-06 14:46 354 5.0
2019-Dec-06 14:32 044 5.0
2019-Dec-06 14:16 021 5.0
2019-Dec-06 14:01 010 5.0
2019-Dec-06 13:46 003 5.0
2019-Dec-06 13:31 033 5.0
2019-Dec-06 13:17 068 5.0
2019-Dec-06 13:01 065 1 gusting 4 5.0
2019-Dec-06 12:45 071 0 gusting 1 5.0
2019-Dec-06 12:31 013 5.0
2019-Dec-06 12:16 080 0 gusting 5 5.0
2019-Dec-06 12:00 073 4.4
2019-Dec-06 11:45 008 4.4
2019-Dec-06 11:31 065 5.0
2019-Dec-06 11:15 067 1 gusting 2 5.0
2019-Dec-06 11:01 030 5.0
2019-Dec-06 10:45 075 0 gusting 2 4.4
2019-Dec-06 10:31 060 5.0
2019-Dec-06 10:15 020 5.0
2019-Dec-06 10:00 032 5.0
2019-Dec-06 09:45 033 5.0
2019-Dec-06 09:30 019 5.0
2019-Dec-06 09:15 002 5.0
2019-Dec-06 09:00 060 5.0
2019-Dec-06 08:45 076 5.0
2019-Dec-06 08:30 070 5.0
2019-Dec-06 08:15 068 5.0
2019-Dec-06 08:00 018 5.0
2019-Dec-06 07:45 262 5.0
2019-Dec-06 07:30 039 5.0
2019-Dec-06 07:15 093 5.0
2019-Dec-06 07:00 068 5.0
2019-Dec-06 06:45 076 0 gusting 4 5.6
2019-Dec-06 06:30 065 1 gusting 5 5.6
2019-Dec-06 06:15 057 2 gusting 6 5.6
2019-Dec-06 06:00 060 5.6
2019-Dec-06 05:45 059 1 gusting 6 5.6
2019-Dec-06 05:30 044 5.6
2019-Dec-06 05:17 094 5.6
2019-Dec-06 05:03 073 5.6
2019-Dec-06 04:47 082 5.6
2019-Dec-06 04:32 082 5.6
2019-Dec-06 04:16 338 5.6
2019-Dec-06 04:02 073 5.0
2019-Dec-06 03:46 077 5.6
2019-Dec-06 03:32 065 0 gusting 5 5.6
2019-Dec-06 03:16 072 0 gusting 3 6.1
2019-Dec-06 03:01 028 6.1
2019-Dec-06 02:48 056 6.1
2019-Dec-06 02:31 350 6.1
2019-Dec-06 02:17 078 6.1
2019-Dec-06 02:02 111 6.1
2019-Dec-06 01:48 139 6.1
2019-Dec-06 01:32 076 6.1
2019-Dec-06 01:17 068 0 gusting 5 6.1
2019-Dec-06 01:01 049 2 gusting 11 6.1
2019-Dec-06 00:46 051 6.1
2019-Dec-06 00:32 070 0 gusting 4 6.1
2019-Dec-06 00:16 068 2 gusting 6 6.1
2019-Dec-06 00:01 052 6.1
2019-Dec-05 23:46 031 0 gusting 3 6.1
2019-Dec-05 23:31 055 0 gusting 2 6.1
2019-Dec-05 23:17 055 1 6.7
2019-Dec-05 23:01 020 0 gusting 5 6.7
2019-Dec-05 22:47 004 0 gusting 2 6.7
2019-Dec-05 22:31 077 1 gusting 5 6.7
2019-Dec-05 22:16 023 7.2
2019-Dec-05 22:01 071 7.2
2019-Dec-05 21:46 084 1 gusting 7 7.2
2019-Dec-05 21:31 051 2 gusting 5 7.2
2019-Dec-05 21:16 033 2 gusting 6 7.2
2019-Dec-05 21:01 074 6.7
2019-Dec-05 20:46 024 1 gusting 6 6.7
2019-Dec-05 20:31 063 0 gusting 5 6.7
2019-Dec-05 20:16 036 0 gusting 6 6.7
2019-Dec-05 20:01 046 1 gusting 5 6.7
2019-Dec-05 19:46 055 1 gusting 3 6.7
2019-Dec-05 19:30 035 2 gusting 5 6.7
2019-Dec-05 19:16 038 0 gusting 5 6.7
2019-Dec-05 19:01 024 3 gusting 6 6.1
2019-Dec-05 18:45 071 2 gusting 9 6.1
2019-Dec-05 18:31 074 0 gusting 3 6.1
2019-Dec-05 18:15 045 1 gusting 5 6.1
2019-Dec-05 18:00 047 1 gusting 6 5.6
2019-Dec-05 17:45 049 2 gusting 6 5.6
2019-Dec-05 17:30 030 0 gusting 5 5.6
2019-Dec-05 17:15 082 5.0
2019-Dec-05 17:00 079 1 gusting 4 5.0
2019-Dec-05 16:45 354 5.0
2019-Dec-05 16:30 352 4.4
2019-Dec-05 16:15 293 4.4
2019-Dec-05 16:00 260 4.4
2019-Dec-05 15:45 338 4.4
2019-Dec-05 15:30 044 4.4
2019-Dec-05 15:15 246 4.4
2019-Dec-05 15:00 018 4.4
2019-Dec-05 14:45 340 3.9
2019-Dec-05 14:30 307 4.4
2019-Dec-05 14:15 011 3.9
2019-Dec-05 14:00 287 3.9
2019-Dec-05 13:45 277 3.9
2019-Dec-05 13:30 277 3.9
2019-Dec-05 13:15 282 3.9
2019-Dec-05 12:47 283 3.9
2019-Dec-05 12:31 239 3.3
2019-Dec-05 12:17 207 3.3
2019-Dec-05 12:01 277 3.3
2019-Dec-05 11:46 277 3.3
2019-Dec-05 11:33 277 3.9
2019-Dec-05 11:16 304 3.9
2019-Dec-05 11:01 304 4.4
2019-Dec-05 10:46 274 4.4
2019-Dec-05 10:31 274 5.0
2019-Dec-05 10:16 274 5.0
2019-Dec-05 10:01 274 5.0
2019-Dec-05 09:46 274 5.0
2019-Dec-05 09:32 274 5.6
2019-Dec-05 09:16 274 5.6
2019-Dec-05 09:01 274 6.1
2019-Dec-05 08:46 282 6.1
2019-Dec-05 08:31 277 6.1
2019-Dec-05 08:16 275 6.1
2019-Dec-05 08:01 333 6.1
2019-Dec-05 07:45 274 5.6
2019-Dec-05 07:30 274 5.6
2019-Dec-05 07:16 274 5.0
2019-Dec-05 07:01 274 5.0
2019-Dec-05 06:45 283 5.0
2019-Dec-05 06:31 326 5.6
2019-Dec-05 06:16 281 5.6
2019-Dec-05 06:01 289 5.6
2019-Dec-05 05:45 292 5.6
2019-Dec-05 05:30 278 5.6
2019-Dec-05 05:15 281 5.6
2019-Dec-05 05:00 279 5.6
2019-Dec-05 04:45 278 5.0
2019-Dec-05 04:30 284 5.0
2019-Dec-05 04:15 268 5.0
2019-Dec-05 04:00 211 5.0
2019-Dec-05 03:45 211 5.0
2019-Dec-05 03:30 211 5.0
2019-Dec-05 03:15 211 5.0
2019-Dec-05 03:00 211 5.0
2019-Dec-05 02:46 211 5.0
2019-Dec-05 02:30 211 5.0
2019-Dec-05 02:15 211 5.6
2019-Dec-05 02:00 211 5.0
2019-Dec-05 01:45 202 5.6
2019-Dec-05 01:30 274 5.0
2019-Dec-05 01:15 274 5.0
2019-Dec-05 01:00 208 5.6
2019-Dec-05 00:46 208 6.1
2019-Dec-05 00:31 208 6.7
2019-Dec-05 00:16 208 6.7
2019-Dec-05 00:02 208 6.7
2019-Dec-04 23:46 209 6.7
2019-Dec-04 23:32 249 7.2
2019-Dec-04 23:16 255 0 gusting 2 7.2
2019-Dec-04 23:01 271 0 gusting 4 7.2
2019-Dec-04 22:46 203 0 gusting 1 7.2
2019-Dec-04 22:31 287 0 gusting 2 7.2
2019-Dec-04 22:16 274 7.2
2019-Dec-04 22:01 236 7.2
2019-Dec-04 21:47 257 7.2
2019-Dec-04 21:31 285 7.2
2019-Dec-04 21:16 257 0 gusting 3 7.2
2019-Dec-04 21:02 277 0 gusting 4 7.2
2019-Dec-04 20:46 273 1 gusting 3 7.2
2019-Dec-04 20:31 278 2 gusting 6 7.2
2019-Dec-04 20:16 269 1 gusting 5 7.2
2019-Dec-04 20:02 252 1 gusting 3 7.2
2019-Dec-04 19:46 276 0 gusting 5 6.7
2019-Dec-04 19:31 286 1 gusting 4 6.7
2019-Dec-04 19:16 279 0 gusting 5 6.7
2019-Dec-04 19:01 300 2 gusting 6 6.7
2019-Dec-04 18:46 246 0 gusting 6 6.7
2019-Dec-04 18:32 229 1 gusting 6 7.2
2019-Dec-04 18:16 263 3 gusting 5 7.2
2019-Dec-04 18:00 264 4 gusting 6 7.2
2019-Dec-04 17:45 286 4 gusting 7 8.3
2019-Dec-04 17:30 263 8.3
2019-Dec-04 17:15 193 1 gusting 5 8.3
2019-Dec-04 17:01 204 2 gusting 6 8.3
2019-Dec-04 16:45 207 3 gusting 7 8.3
2019-Dec-04 16:30 172 3 gusting 8 8.3
2019-Dec-04 16:15 165 2 gusting 6 8.3
2019-Dec-04 16:02 206 3 gusting 9 8.3
2019-Dec-04 15:45 194 3 gusting 6 8.3
2019-Dec-04 15:31 195 3 gusting 6 8.3
2019-Dec-04 15:15 150 4 gusting 7 8.3
2019-Dec-04 15:00 160 2 gusting 6 8.3